SP5IZJ-2 Weather Reports


Display with metric or nautical units.
time (UTC)temp
F
wind
direction
speed
MPH
gust
MPH
rain 1hr
in
rain 24hr
in
rain mn
in
humidity
%
barometer
mb
20260506035537 50 225 0.0 4.0 0.00 0.00 0.00 82 998.2
20260506034831 50 225 1.0 5.0 0.00 0.00 0.00 82 998.1
20260506034135 49 225 1.0 4.0 0.00 0.00 0.00 82 998.2
20260506033433 49 225 0.0 3.0 0.00 0.00 0.00 83 998.3
20260506032031 48 225 0.0 1.0 0.00 0.00 0.00 83 998.1
20260506031331 48 359 0.0 0.0 0.00 0.00 0.00 83 998.1
20260506030632 212 359 0.0 0.0 0.00 0.00 0.00 100
20260506024539 47 225 0.0 4.0 0.00 0.00 0.00 82 998.4
20260506023835 47 225 0.0 0.0 0.00 0.00 0.00 82 998.3
20260506022433 47 225 0.0 0.0 0.00 0.00 0.00 81 998.7
20260506021033 48 359 0.0 0.0 0.00 0.00 0.00 81 998.5
20260506020333 212 359 0.0 0.0 0.00 0.00 0.00 100
20260506015641 49 225 0.0 0.0 0.00 0.00 0.00 81 998.7
20260506015633 49 225 0.0 0.0 0.00 0.00 0.00 81 998.7
20260506014238 49 225 0.0 2.0 0.00 0.00 0.00 81 998.6
20260506013534 49 225 0.0 4.0 0.00 0.00 0.00 81 998.5
20260506012834 49 180 0.0 4.0 0.00 0.00 0.00 81 998.8
20260506012139 49 180 0.0 4.0 0.00 0.00 0.00 81 998.8
20260506011434 49 158 0.0 0.0 0.00 0.00 0.00 81 998.7
20260506010741 49 158 0.0 3.0 0.00 0.00 0.00 81 998.7
20260506003935 50 158 0.0 3.0 0.00 0.00 0.00 82 998.6
20260506002536 50 180 0.0 0.0 0.00 0.00 0.00 82 998.6
20260506001836 51 180 0.0 0.0 0.00 0.00 0.00 83 998.7
20260506001136 51 180 0.0 2.0 0.00 0.00 0.00 83 998.7
20260506000438 51 180 0.0 2.0 0.00 0.00 0.00 83 998.6
20260505235741 51 180 0.0 0.0 0.00 0.00 0.00 82 998.6
20260505235037 52 180 0.0 1.0 0.00 0.00 0.00 83 998.7
20260505234337 52 180 0.0 0.0 0.00 0.00 0.00 82 998.6
20260505233637 52 180 0.0 0.0 0.00 0.00 0.00 82 998.6
20260505232937 52 180 0.0 0.0 0.00 0.00 0.00 81 998.5
20260505232242 53 180 0.0 0.0 0.00 0.00 0.00 81 998.6
20260505231537 53 180 0.0 0.0 0.00 0.00 0.00 81 998.4
20260505230138 54 359 0.0 0.0 0.00 0.00 0.00 81 998.2
20260505225438 55 359 0.0 0.0 0.00 0.00 0.00 80 998.5
20260505224745 55 359 0.0 0.0 0.00 0.00 0.00 79 998.4
20260505224038 55 180 0.0 5.0 0.00 0.00 0.00 79 998.2
20260505223339 56 158 0.0 5.0 0.00 0.00 0.00 79 998.3
20260505222639 56 158 0.0 4.0 0.00 0.00 0.00 78 998.3
20260505221939 56 158 0.0 2.0 0.00 0.00 0.00 78 998.3
20260505220544 57 180 1.0 5.0 0.00 0.00 0.00 78 998.2
20260505215839 57 359 0.0 0.0 0.00 0.00 0.00 77 998.5
20260505214440 58 158 2.0 8.0 0.00 0.00 0.00 77 998.4
20260505213740 59 158 2.0 8.0 0.00 0.00 0.00 76 998.5
20260505212340 59 158 1.0 6.0 0.00 0.00 0.00 75 998.4
20260505205541 61 158 3.0 9.0 0.00 0.00 0.00 72 998.1
20260505204841 62 180 4.0 9.0 0.00 0.00 0.00 71 998.1
20260505204141 62 158 4.0 12.0 0.00 0.00 0.00 71 998.0
20260505203441 62 158 4.0 11.0 0.00 0.00 0.00 70 998.1
20260505202806 63 158 3.0 11.0 0.00 0.00 0.00 69 998.0
20260505202042 63 158 5.0 13.0 0.00 0.00 0.00 68 997.8
20260505194647 65 158 5.0 10.0 0.00 0.00 0.00 64 997.7
20260505194543 65 158 5.0 10.0 0.00 0.00 0.00 64 997.7
20260505193843 65 135 4.0 12.0 0.00 0.00 0.00 62 997.7
20260505192443 67 158 5.0 11.0 0.00 0.00 0.00 57 997.6
20260505191044 68 135 3.0 10.0 0.00 0.00 0.00 47 997.5
20260505190401 67 68 1.0 8.0 0.00 0.00 0.00 41 997.3
20260505185644 64 158 2.0 9.0 0.00 0.00 0.00 48 997.4
20260505184948 64 135 1.0 5.0 0.00 0.00 0.00 42 997.5
20260505184329 64 359 0.0 0.0 0.00 0.00 0.00 40 997.2
20260505183629 64 203 0.0 0.0 0.00 0.00 0.00 39 997.0
20260505182145 67 203 0.0 0.0 0.00 0.00 0.00 37 997.0
20260505181540 68 203 0.0 0.0 0.00 0.00 0.00 35 996.7
20260505181445 68 203 0.0 0.0 0.00 0.00 0.00 35 996.7
20260505180745 70 203 0.0 0.0 0.00 0.00 0.00 34 996.9
20260505180112 71 248 0.0 0.0 0.00 0.00 0.00 33 996.8
20260505174646 76 0 0.0 0.0 0.00 0.00 0.00 30 996.7
20260505173246 80 315 0.0 0.0 0.00 0.00 0.00 28 996.8
20260505172551 82 23 0.0 1.0 0.00 0.00 0.00 27 996.7
20260505171146 84 359 0.0 0.0 0.00 0.00 0.00 26 996.9
20260505170447 83 0 0.0 0.0 0.00 0.00 0.00 27 996.9
20260505165747 82 0 0.0 0.0 0.00 0.00 0.00 27 996.7
20260505164425 79 0 0.0 3.0 0.00 0.00 0.00 28 997.0
20260505163729 79 359 0.0 0.0 0.00 0.00 0.00 28 997.0
20260505163033 80 359 0.0 0.0 0.00 0.00 0.00 27 997.2
20260505152651 84 338 3.0 7.0 0.00 0.00 0.00 25 997.3
20260505151949 84 0 3.0 7.0 0.00 0.00 0.00 25 997.2
20260505151249 83 338 8.0 13.0 0.00 0.00 0.00 23 997.3
20260505140251 92 0 5.0 13.0 0.00 0.00 0.00 21 997.9
20260505123153 82 23 4.0 8.0 0.00 0.00 0.00 30 999.0
20260505122456 81 0 5.0 14.0 0.00 0.00 0.00 30 999.1
20260505121754 82 0 7.0 13.0 0.00 0.00 0.00 29 999.2
20260505115654 87 0 4.0 14.0 0.00 0.00 0.00 27 999.4
20260505114955 87 0 2.0 9.0 0.00 0.00 0.00 29 999.5
20260505112855 85 0 3.0 6.0 0.00 0.00 0.00 32 999.5
20260505110756 90 0 0.0 8.0 0.00 0.00 0.00 31 999.8
20260505101157 89 0 1.0 6.0 0.00 0.00 0.00 34 1000.7
20260505100457 88 135 0.0 1.0 0.00 0.00 0.00 34 1000.8
20260505095058 88 225 1.0 5.0 0.00 0.00 0.00 33 1001.0
20260505094358 88 248 0.0 3.0 0.00 0.00 0.00 34 1001.2
20260505093658 86 359 0.0 0.0 0.00 0.00 0.00 36 1001.1
20260505082002 83 225 0.0 3.0 0.00 0.00 0.00 39 1001.9
20260505080600 83 225 0.0 0.0 0.00 0.00 0.00 43 1001.7
20260505075900 80 248 0.0 5.0 0.00 0.00 0.00 43 1001.7
20260505073801 76 225 1.0 4.0 0.00 0.00 0.00 47 1001.8
20260505073101 76 225 0.0 4.0 0.00 0.00 0.00 47 1001.9
20260505072401 76 225 1.0 7.0 0.00 0.00 0.00 48 1002.0
20260505064202 70 225 0.0 1.0 0.00 0.00 0.00 57 1002.6
20260505061403 70 225 1.0 7.0 0.00 0.00 0.00 57 1002.6
20260505060703 69 225 2.0 5.0 0.00 0.00 0.00 56 1002.6
20260505054604 71 225 1.0 6.0 0.00 0.00 0.00 58 1002.4
20260505053204 69 225 0.0 1.0 0.00 0.00 0.00 63 1002.6
20260505051804 63 225 0.0 0.0 0.00 0.00 0.00 72 1002.7
20260505051115 60 225 0.0 0.0 0.00 0.00 0.00 74 1002.7
20260505050405 59 225 0.0 0.0 0.00 0.00 0.00 72 1002.7
20260505040806 55 225 1.0 4.0 0.00 0.00 0.00 81 1002.9
20260505040108 54 225 0.0 5.0 0.00 0.00 0.00 81 1002.9